Key West, FL

10:53 AM EDT on August 29, 2016 (GMT -0400)
Key West Naval Air Station

Weather History for KNQX - April, 2014

Change the Weather History Date:

Monday, April 28, 2014

  Actual Average Record
Temperature  
Mean Temperature 82 °F -  
Max Temperature 87 °F 82 °F 89 °F (1965)
Min Temperature 78 °F 73 °F 65 °F (1992)
Cooling Degree Days 17    
Growing Degree Days 32 (Base 50)    
Moisture  
Dew Point 74 °F    
Average Humidity 78    
Maximum Humidity 87    
Minimum Humidity 70    
Precipitation  
Precipitation 0.00 in - - ()
Sea Level Pressure  
Sea Level Pressure 29.92 in    
Wind  
Wind Speed 14 mph (ESE)    
Max Wind Speed 18 mph    
Max Gust Speed -    
Visibility 10 miles    
Events      
Averages and records for this station are not official NWS values.
T = Trace of Precipitation, MM = Missing Value Source: NWS Daily Summary

Daily Weather History Graph

Daily Weather History Graph

Search for Another Location

Airport or City:

Trip Planner

Search our weather history database for the weather conditions in past years. The results will help you decide how hot, cold, wet, or windy it might be!

Date:

Astronomy

Apr. 28, 2014 Rise Set
Actual Time 6:53 AM EDT 7:54 PM EDT
Civil Twilight 6:30 AM EDT 8:18 PM EDT
Nautical Twilight 6:01 AM EDT 8:46 PM EDT
Astronomical Twilight 5:33 AM EDT 9:15 PM EDT
Moon 6:24 AM EDT (4/28) 7:34 PM EDT (4/28)
Length of Visible Light 13h 48m
Length of Day
13h 01m
Waning Crescent, 0% of the Moon is Illuminated
Apr 28
Waning Crescent
Apr 29
New
May 6
First Quarter
May 14
Full
May 21
Last Quarter

Hourly Weather History & Observations

Time (EDT) Temp. Heat Index Dew Point Humidity Pressure Visibility Wind Dir Wind Speed Gust Speed Precip Events Conditions
12:53 AM 78.1 °F - 71.1 °F 79% 29.98 in 10.0 mi ESE 13.8 mph - N/A   Clear
1:53 AM 78.1 °F - 72.0 °F 81% 29.96 in 10.0 mi ESE 12.7 mph - N/A   Partly Cloudy
2:53 AM 78.1 °F - 72.0 °F 81% 29.94 in 10.0 mi ESE 16.1 mph - N/A   Scattered Clouds
3:12 AM 78.1 °F - 72.0 °F 81% 29.94 in 10.0 mi ESE 17.3 mph - N/A   Mostly Cloudy
3:43 AM 78.1 °F - 72.0 °F 81% 29.93 in 10.0 mi ESE 15.0 mph - N/A   Scattered Clouds
3:53 AM 78.1 °F - 72.0 °F 81% 29.93 in 10.0 mi ESE 16.1 mph - N/A   Scattered Clouds
4:53 AM 78.1 °F - 71.1 °F 79% 29.92 in 10.0 mi SE 13.8 mph - N/A   Clear
5:53 AM 78.1 °F - 71.1 °F 79% 29.91 in 10.0 mi ESE 12.7 mph - N/A   Clear
6:53 AM 78.1 °F - 72.0 °F 81% 29.91 in 10.0 mi SE 13.8 mph - N/A   Overcast
7:53 AM 79.0 °F - 73.0 °F 82% 29.94 in 10.0 mi SE 12.7 mph - N/A   Mostly Cloudy
8:53 AM 82.0 °F 87.9 °F 73.9 °F 76% 29.95 in 10.0 mi SE 13.8 mph - N/A   Mostly Cloudy
9:53 AM 82.0 °F 88.6 °F 75.0 °F 79% 29.95 in 10.0 mi SE 13.8 mph - N/A   Mostly Cloudy
10:53 AM 84.9 °F 93.3 °F 75.0 °F 72% 29.95 in 10.0 mi SE 16.1 mph - N/A   Mostly Cloudy
11:53 AM 84.9 °F 94.1 °F 75.9 °F 74% 29.96 in 10.0 mi SE 12.7 mph - N/A   Mostly Cloudy
12:53 PM 84.9 °F 94.1 °F 75.9 °F 74% 29.94 in 10.0 mi ESE 12.7 mph - N/A   Mostly Cloudy
1:53 PM 86.0 °F 96.9 °F 77.0 °F 74% 29.92 in 10.0 mi SE 15.0 mph - N/A   Mostly Cloudy
2:53 PM 86.0 °F 96.0 °F 75.9 °F 72% 29.91 in 10.0 mi SE 16.1 mph - N/A   Scattered Clouds
3:53 PM 86.0 °F 96.0 °F 75.9 °F 72% 29.89 in 10.0 mi ESE 12.7 mph - N/A   Scattered Clouds
4:53 PM 86.0 °F 95.1 °F 75.0 °F 70% 29.87 in 10.0 mi ESE 12.7 mph - N/A   Scattered Clouds
5:53 PM 84.0 °F 91.9 °F 75.0 °F 74% 29.87 in 10.0 mi East 13.8 mph - N/A   Scattered Clouds
6:53 PM 82.9 °F 89.4 °F 73.9 °F 74% 29.87 in 10.0 mi East 13.8 mph - N/A   Scattered Clouds
7:53 PM 81.0 °F 86.7 °F 75.0 °F 82% 29.89 in 10.0 mi ESE 15.0 mph - N/A   Scattered Clouds
8:53 PM 80.1 °F 85.4 °F 75.9 °F 87% 29.92 in 10.0 mi ESE 16.1 mph - N/A   Mostly Cloudy
9:53 PM 80.1 °F 85.1 °F 75.0 °F 85% 29.91 in 10.0 mi ESE 12.7 mph - N/A   Clear
10:53 PM 80.1 °F 85.1 °F 75.0 °F 85% 29.91 in 10.0 mi ESE 15.0 mph - N/A   Clear
11:53 PM 80.1 °F 83.8 °F 72.0 °F 76% 29.94 in 10.0 mi SE 18.4 mph - N/A   Mostly Cloudy